Location: Hochstatterhof
(48.7256°N, 10.3487°E)
Time: 21:29:50
(UTC+00:00)

SL-19 R/B - Pass Details

Date: 26 September 2023
Orbit: 796 x 1008 km, 99.6° (Epoch: 08 December)

Event Time Altitude Azimuth Distance (km) Brightness Sun altitude
Rises 04:11:15 0° 15° (NNE) 3,558 7.8 -10.5°
Reaches altitude 10° 04:13:37 10° 15° (NNE) 2,642 7.1 -10.1°
Maximum altitude 04:19:34 87° 290° (WNW) 971 4.5 -9.2°
Drops below altitude 10° 04:25:47 10° 200° (SSW) 2,746 6.6 -8.1°
Sets 04:28:17 0° 200° (SSW) 3,706 7.3 -7.7°
